This demonstration page uses our WeatherBlox Daily Observations layout. Learn more.

Left ArrowRight Arrow

41.86663, -103.66717

Hourly Observations for August 24, 2020

Temp ( °F °C ) Dew Point ( °F °C ) Humidity (%) Winds ( mph kmh ) Pressure ( in mb ) Visibility ( mi km ) Precip ( " mm )
12:53 am 00:53 Clear 74 23.3 58 14.4 57 57 SE 5 7 29.86 1011 10 16 N/A
1:53 am 01:53 Clear 70 21.1 59 15 68 68 ESE 9 15 29.84 1011 10 16 N/A
2:53 am 02:53 Clear 67 19.4 58 14.4 73 73 E 7 11 29.84 1011 10 16 N/A
3:53 am 03:53 Clear 66 18.9 59 15 78 78 E 6 9 29.85 1011 10 16 N/A
4:53 am 04:53 Clear 65 18.3 58 14.4 78 78 W 3 6 29.86 1011 10 16 N/A
5:53 am 05:53 Clear 66 18.9 58 14.4 75 75 ENE 5 7 29.87 1012 10 16 N/A
6:53 am 06:53 Sunny 66 18.9 58 14.4 75 75 N 5 7 29.90 1012 9 14 N/A
7:53 am 07:53 Partly Cloudy 68 20 59 15 73 73 E 5 7 29.91 1013 7 11 N/A
8:53 am 08:53 Sunny 76 24.4 55 12.8 48 48 SSW 8 13 29.88 1012 8 13 0.00 0.00
9:53 am 09:53 Sunny 79 26.1 57 13.9 47 47 VRB 3 6 29.89 1012 8 13 N/A
10:53 am 10:53 Sunny 85 29.4 53 11.7 33 33 VRB 5 7 29.88 1012 8 13 N/A
11:53 am 11:53 Sunny 90 32.2 55 12.8 31 31 ENE 6 9 29.87 1011 8 13 N/A
12:53 pm 12:53 Sunny 93 33.9 51 10.6 24 24 N N/A 29.85 1011 9 14 N/A
1:53 pm 13:53 Sunny 98 36.7 49 9.4 19 19 E 8 13 29.83 1010 9 14 N/A
2:53 pm 14:53 Sunny 99 37.2 48 8.9 18 18 E 9 15 29.82 1010 8 13 N/A
3:53 pm 15:53 Sunny 99 37.2 50 10 19 19 E 10 17 29.80 1009 7 11 N/A
4:53 pm 16:53 Sunny 98 36.7 53 11.7 22 22 E 9 15 29.79 1009 8 13 N/A
5:53 pm 17:53 Sunny 93 33.9 58 14.4 31 31 undefined N/A 29.79 1009 8 13 N/A
6:53 pm 18:53 Sunny 89 31.7 58 14.4 35 35 E 12 19 29.79 1009 9 14 N/A
7:53 pm 19:53 Clear 83 28.3 59 15 44 44 ESE 12 19 29.81 1010 10 16 N/A
8:53 pm 20:53 Clear 78 25.6 60 15.6 54 54 E 10 17 29.83 1010 9 14 N/A
9:53 pm 21:53 Clear 80 26.7 58 14.4 47 47 ESE 7 11 29.83 1010 10 16 N/A
10:53 pm 22:53 Clear 74 23.3 60 15.6 62 62 ENE 8 13 29.82 1010 10 16 N/A
11:53 pm 23:53 Clear 71 21.7 58 14.4 63 63 E 6 9 29.81 1010 10 16 N/A

Powered by AerisWeather